RH
36 30 25 19 17 15 15 12 10 10 12 13 16 25 27 33 33 24 15 13 12 12 13 15 16 17 19 19 18 17 15 14 14 15 16 17 17 18 19 21 20 24 26
51 30 37 21 18 17 15 16 16 10 11 14 17 23 28 16 11 8 9 8 7 7 7 8 8 9 10 11 12 12 13 14 15 15 16 17 17 18 19 20 22 22 22
61 39 37 32 18 21 21 19 18 14 11 14 15 15 14 10 10 10 10 8 8 7 7 7 8 9 10 10 10 10 10 10 11 13 14 14 15 16 18 21 24 24 26
75 45 45 37 34 26 22 22 26 21 10 11 12 11 9 10 12 10 9 9 8 8 8 8 9 11 12 13 14 14 14 14 15 17 16 15 15 16 16 16 17 19 19
95 62 48 61 37 34 37 33 32 29 12 11 10 9 9 10 13 11 11 10 8 8 10 11 12 13 15 15 15 15 14 15 14 14 14 13 13 12 12 11 12 13 14
100 62 68 54 61 42 37 45 47 37 27 11 11 10 11 13 14 13 13 11 10 10 12 13 13 15 16 15 13 12 14 13 13 15 14 14 14 13 12 12 13 13 12
72 64 86 73 65 68 55 50 55 42 36 20 11 11 13 14 16 16 17 13 11 11 13 17 17 16 16 16 16 16 17 18 15 14 13 13 13 13 13 12 13 14 14
40 57 91 85 76 87 61 48 59 52 48 39 24 12 12 12 14 17 18 18 14 11 11 17 19 18 20 19 18 18 19 17 17 14 14 13 12 12 12 12 12 14 15
52 48 60 71 74 100 75 50 50 65 65 49 42 27 14 13 16 16 18 21 19 15 14 14 16 18 20 19 19 20 17 16 15 15 17 17 15 15 18 15 17 17 17
62 49 52 78 75 100 80 57 47 53 80 76 52 42 24 15 16 18 19 23 25 20 16 15 16 21 20 21 20 23 20 18 19 20 20 20 20 18 18 21 20 21 22
87 68 54 60 67 100 88 88 60 45 58 95 76 55 36 24 21 22 24 27 27 24 20 19 20 21 24 24 23 20 20 22 23 24 22 23 26 28 27 24 23 22 23
68 75 81 58 58 88 100 96 91 64 52 95 100 85 61 38 27 26 28 30 31 29 26 25 26 27 25 26 27 26 22 22 30 25 26 29 31 26 28 25 23 23 22
100 94 86 64 46 88 98 100 100 90 60 73 100 100 92 66 38 36 34 36 37 31 30 31 33 37 34 33 30 30 28 30 34 30 30 33 37 34 34 30 26 26 24
100 95 82 85 92 99 100 98 100 100 80 59 87 100 100 98 66 42 41 44 41 37 38 42 44 43 44 46 43 37 33 36 39 37 31 38 36 35 35 31 27 29 26
100 100 97 78 81 97 93 86 92 75 98 75 72 99 100 100 90 59 52 55 50 43 48 56 55 60 60 53 53 61 56 49 44 43 38 42 48 44 35 32 31 29 30
97 100 100 100 98 82 70 72 78 65 84 93 72 85 96 100 100 88 71 66 61 54 62 64 67 68 73 59 68 65 50 56 50 42 48 51 46 47 43 42 39 36 36
100 100 100 100 93 88 64 72 67 57 84 98 92 75 89 100 100 100 94 92 85 72 78 87 90 78 73 66 58 56 51 47 54 48 52 53 59 51 50 46 45 42 39
90 100 96 88 94 89 72 73 71 77 86 89 87 91 87 93 100 100 100 100 96 93 84 97 89 100 86 76 72 66 59 58 64 63 65 63 59 67 58 53 51 46 42
66 75 100 100 80 87 72 51 73 91 85 92 72 92 89 99 100 100 100 100 100 100 100 100 100 100 100 100 90 76 90 80 86 84 80 70 66 69 66 56 51 48 43
69 87 80 80 84 75 53 71 79 68 94 92 79 100 100 91 97 100 100 100 100 100 100 100 100 100 100 100 100 100 100 98 100 98 98 78 71 68 64 56 55 58 42
62 79 78 66 83 86 88 80 74 60 68 88 88 92 100 78 77 100 100 100 100 100 100 100 100 100 100 100 100 100 100 100 100 100 87 81 77 63 54 60 68 50 36
27 65 78 81 87 92 100 75 67 60 74 71 100 96 81 75 74 90 100 100 100 100 100 100 100 100 100 100 100 100 100 100 100 100 86 81 72 60 63 64 56 39 37
42 79 86 97 100 100 90 93 81 60 55 68 66 89 80 71 76 88 100 100 100 100 100 100 100 100 100 99 100 100 100 100 100 97 81 80 64 61 74 66 44 32 35
38 34 69 100 100 100 100 100 100 92 57 100 78 77 100 95 93 99 100 100 100 100 100 100 100 100 100 100 100 100 99 98 89 85 76 69 62 74 71 46 37 32 42
38 43 45 73 100 100 100 100 100 100 73 80 88 70 86 100 100 100 100 100 100 100 100 100 100 100 100 100 100 100 100 93 90 78 69 67 63 61 54 46 34 45 54
52 48 48 44 75 82 92 97 100 100 96 94 95 86 95 100 100 100 100 100 100 100 100 100 100 100 99 84 93 99 93 95 85 74 68 52 59 58 47 35 54 57 67
Wind_Speed
25 23 21 22 21 19 21 21 22 25 25 25 27 29 29 27 26 26 26 29 31 32 34 35 37 39 40 42 43 45 46 46 47 49 50 51 52 54 54 54 56 55 56
28 24 22 21 18 20 22 21 21 21 19 20 20 22 22 20 20 19 21 24 25 27 30 32 35 37 38 40 41 42 42 43 42 41 41 41 43 46 48 50 51 50 49
27 26 25 25 24 22 24 24 22 22 19 19 17 16 16 15 17 20 20 20 23 26 29 31 32 34 35 36 37 37 37 37 38 39 39 40 40 41 41 41 43 45 46
24 27 27 25 27 26 24 27 23 23 21 17 15 17 16 16 17 17 16 18 19 22 24 26 26 28 29 28 27 27 27 27 26 26 28 29 31 32 33 36 38 40 42
27 28 29 27 26 27 27 27 25 24 22 19 18 18 20 20 19 16 17 18 20 21 19 17 15 16 18 18 17 12 12 13 12 12 15 18 21 24 25 28 31 34 37
33 31 31 31 28 27 28 27 28 26 26 23 23 22 22 23 23 19 18 18 17 17 15 14 13 11 9 9 9 7 8 9 9 13 16 16 18 21 25 28 30 32 34
34 33 34 33 31 29 27 27 27 25 27 28 27 27 27 26 25 25 23 19 17 14 14 13 11 11 12 12 11 11 12 14 13 16 20 18 20 21 19 25 28 32 32
35 31 34 35 34 34 30 28 29 29 27 29 29 31 34 32 30 28 27 24 18 14 13 12 12 14 15 16 16 16 15 19 19 16 23 23 27 25 29 30 31 29 30
41 37 35 36 34 35 33 30 31 33 31 31 30 32 34 34 32 32 30 28 22 16 15 14 16 17 17 16 16 19 19 20 19 24 26 27 27 30 38 37 36 37 38
45 42 39 38 36 35 32 33 31 34 35 33 32 32 34 37 36 34 32 29 27 24 20 18 20 20 21 20 22 22 22 22 25 28 28 32 31 34 37 39 41 41 41
47 45 44 43 37 35 33 34 33 33 36 35 34 35 33 35 37 35 32 31 27 26 24 24 23 24 25 27 27 28 31 29 31 33 35 38 39 42 44 46 46 48 49
49 45 48 46 42 39 36 37 38 36 36 37 39 38 36 36 37 36 33 32 29 28 28 27 28 27 27 29 32 32 32 34 36 38 41 40 43 46 48 49 51 54 54
45 42 42 44 45 41 38 39 40 40 39 39 39 42 43 39 38 36 37 34 33 31 31 32 31 31 31 32 33 35 38 39 40 43 44 47 49 51 53 55 55 59 60
49 47 46 44 44 45 41 42 42 42 42 43 42 43 44 40 41 41 39 37 35 34 35 35 34 34 35 36 37 40 41 42 44 49 51 52 52 55 57 58 61 62 65
51 51 48 46 47 47 48 47 47 45 45 46 46 45 46 45 43 44 43 39 38 36 36 38 38 39 40 41 43 45 47 47 49 50 55 55 56 58 60 64 66 70 73
55 52 52 51 51 52 50 52 53 50 49 48 48 49 46 49 48 47 47 46 40 39 40 41 42 42 44 45 47 51 49 53 56 57 58 61 63 64 65 70 75 76 75
53 51 51 53 55 56 55 54 54 54 50 50 51 51 52 50 52 49 49 49 45 41 40 40 44 45 46 50 52 54 56 59 62 63 66 64 67 70 74 79 80 80 79
55 58 57 53 54 55 56 54 53 52 51 53 52 55 52 53 53 53 51 52 48 46 45 44 44 48 52 54 56 59 62 65 65 69 72 73 73 74 80 82 85 84 86
54 56 56 60 59 55 57 54 53 52 51 53 53 55 54 51 52 56 55 55 54 50 51 52 53 55 59 60 61 64 64 66 70 74 75 78 79 80 83 87 87 89 93
50 52 55 56 56 58 52 50 49 52 52 53 53 52 55 55 56 58 59 57 56 56 55 55 58 62 64 66 66 65 68 73 74 76 79 82 84 85 88 89 90 98 101
49 49 51 49 56 56 52 50 50 48 47 49 53 53 55 57 56 55 62 59 59 60 60 60 63 67 69 70 69 71 74 74 76 80 84 86 88 91 92 93 97 100 104
52 51 49 47 48 49 51 52 51 50 48 49 51 56 57 58 58 57 59 61 60 59 59 62 66 70 72 74 73 76 76 77 81 86 88 91 92 95 96 97 101 105 108
51 51 50 47 50 53 52 52 53 51 48 46 49 52 56 60 61 60 58 61 60 59 61 64 69 73 75 76 78 80 79 82 86 92 93 95 97 97 99 103 107 112 116
55 49 47 47 49 50 50 51 51 53 49 50 49 48 55 63 64 62 62 60 60 61 65 70 74 76 76 80 83 85 87 90 94 93 99 100 101 102 106 110 112 116 119
63 54 51 49 49 50 50 50 53 55 51 52 53 50 54 58 61 62 62 61 63 66 71 73 75 78 83 85 87 90 93 97 99 102 103 101 105 108 111 113 117 117 120
65 62 56 55 53 51 51 51 52 55 55 55 56 54 54 54 57 60 63 66 67 70 74 77 81 84 89 91 92 95 99 100 101 103 104 106 109 113 117 119 120 121 125
Wind_Direction
311 303 298 291 279 277 279 284 289 281 276 284 275 268 270 271 275 275 278 281 279 277 276 273 271 269 268 268 269 269 268 269 269 268 267 267 267 267 268 267 268 267 267
303 305 291 289 276 279 282 289 304 297 280 279 279 271 267 273 281 284 284 284 282 280 279 276 275 274 275 274 271 272 273 274 273 274 274 275 273 272 272 271 269 268 267
295 302 298 283 279 280 284 291 298 309 287 274 269 267 271 272 284 280 288 296 291 286 282 279 278 277 276 276 277 275 275 276 275 276 276 276 275 275 275 276 275 273 273
292 297 299 297 283 280 281 286 290 296 288 271 262 265 258 266 283 290 296 307 302 297 290 286 283 281 281 282 280 281 278 278 278 279 280 281 281 282 283 282 282 282 280
284 290 296 301 294 286 280 279 288 288 289 268 265 261 260 262 280 287 299 314 322 315 304 303 304 295 286 283 283 282 284 284 291 304 304 305 304 303 304 303 298 293 290
280 286 286 293 297 295 290 281 280 283 280 268 264 261 261 267 274 281 302 317 326 320 311 310 299 299 294 295 302 308 324 308 301 320 321 305 305 304 306 304 299 293 290
275 279 283 286 292 298 297 284 277 278 276 273 267 262 259 267 273 281 293 311 322 308 304 311 309 297 292 293 298 297 300 313 305 304 316 321 313 317 330 335 323 310 306
272 277 280 281 288 291 295 286 276 270 273 273 273 267 265 269 272 277 286 293 311 309 302 286 288 293 285 286 291 300 310 314 316 320 321 323 317 316 329 333 335 333 330
269 275 279 279 283 284 287 286 277 269 273 272 268 269 267 266 269 276 279 284 293 297 298 284 283 284 286 290 289 292 303 308 310 310 315 313 314 318 329 328 330 333 329
271 273 275 275 275 279 282 282 280 272 268 272 271 268 267 267 268 272 274 277 287 290 292 293 290 291 290 291 293 296 294 296 301 304 311 312 317 321 320 322 324 328 329
271 269 273 275 274 275 279 282 286 280 270 269 272 271 267 269 269 269 269 276 282 286 287 292 291 288 297 297 298 299 301 302 306 308 313 314 317 319 320 322 321 322 322
274 272 270 273 273 273 277 278 283 287 276 270 271 273 272 268 269 269 267 275 280 285 285 286 290 286 288 293 295 295 297 300 303 309 310 311 313 314 316 317 319 317 317
268 268 266 268 272 273 270 278 280 283 284 268 275 270 270 267 265 268 267 271 277 280 283 284 286 285 287 288 289 292 298 297 301 304 308 310 312 313 314 313 313 313 316
264 268 271 270 269 270 270 273 278 279 284 277 267 273 270 267 266 265 265 270 276 276 280 281 282 279 282 284 286 291 293 295 301 305 309 309 311 310 310 308 311 311 312
267 272 272 272 265 267 271 271 274 275 279 280 269 269 275 272 269 264 264 266 271 273 276 277 280 278 281 286 286 290 294 296 300 302 306 307 307 307 307 307 308 309 310
265 268 268 269 267 268 270 274 272 274 274 278 273 265 270 273 268 265 262 265 266 270 273 275 277 278 281 282 287 291 291 295 298 304 304 305 305 305 305 306 307 310 310
267 267 267 266 265 268 272 274 273 272 272 275 273 269 264 271 270 264 262 264 264 268 272 274 276 281 282 284 289 290 293 296 299 301 302 303 303 303 304 306 308 309 309
263 263 265 266 266 265 270 272 272 268 271 273 270 269 267 266 270 268 261 261 262 265 270 273 279 281 283 285 290 292 296 297 298 299 301 302 302 302 305 306 309 307 307
270 265 263 264 266 267 270 271 272 266 270 270 268 268 269 265 270 274 267 263 262 264 267 271 276 280 282 284 288 292 293 294 294 298 300 300 301 303 305 306 307 306 307
272 271 265 262 265 267 269 270 267 272 276 266 265 264 265 264 267 274 272 263 263 266 268 272 275 278 281 286 289 291 293 294 295 296 298 300 302 304 305 305 305 307 309
276 276 272 269 265 263 266 267 268 271 275 274 262 260 260 265 264 273 270 263 262 267 271 275 275 278 284 287 289 292 293 294 294 296 298 301 303 303 304 304 305 306 306
279 275 277 278 272 266 262 264 268 265 270 269 265 263 261 262 262 270 271 266 265 270 275 275 276 279 284 287 289 291 292 293 295 296 299 300 302 304 304 304 304 306 308
270 271 272 271 269 264 265 266 265 267 267 269 270 268 264 265 266 267 269 266 268 271 275 277 279 281 284 288 288 290 290 292 293 296 298 300 302 303 304 304 306 307 309
271 270 270 269 270 270 270 270 267 272 270 274 273 274 271 268 271 270 270 268 270 273 275 276 279 284 284 285 288 290 291 292 294 296 299 301 302 303 304 306 306 308 311
270 271 269 266 266 266 268 270 268 271 271 272 274 273 273 270 269 268 268 269 270 272 275 277 280 282 284 286 289 290 292 293 296 299 299 301 301 303 305 306 307 311 314
265 269 267 268 265 264 266 268 271 271 270 271 272 272 271 268 267 269 270 272 273 274 277 279 281 283 284 287 289 290 293 296 297 298 300 301 301 303 305 307 311 313 314